Погода в Дровяной

Россия / Забайкальский край     51°34′46″N   113°02′45″E
темп.,
°C
ветер,
м/с
пор.,
м/с
влажн.,
%
обл.,
%
осадки,
мм/ч
давл.,
гПа
погр.,
м
2 марта, вт
вт200:00−23ю1110059 0.0 102520
03:00−24ю119969 0.0 102420
06:00−22юв0096100 0.0 102220
09:00−24ююз119575 0.0 102120
12:00−17зсз118278 0.0 1017246
15:00−13з228389 0.0 1012287
18:00−13сз119294 0.0 101149
21:00−15ююз118989 0.0 101320
3 марта, ср
ср300:00−16ююз1188100 0.0 101320
03:00−14ююз1288100 0.0 101220
06:00−17юз119477 0.0 101220
09:00−16юз119789 0.0 101120
12:00−9зюз2387100 0.0 1008270
15:00−6зюз4788100 0.1 1006572
18:00−5зсз41074100 0.2 1006709
21:00−11з388197 0.2 1011162
4 марта, чт
чт400:00−16з228569 0.0 101423
03:00−19зюз128760 0.0 101720
06:00−20з239494 0.0 101954
09:00−20з379175 0.0 1023186
12:00−16сз710640 0.0 10241317
15:00−15сз586516 0.0 10261458
18:00−16сз4774100 0.0 1028772
21:00−23з228299 0.0 103520
5 марта, пт
пт500:00−26зюз228731 0.0 103920
03:00−28юз118816 0.0 104219
06:00−30юз11900 0.0 104419
09:00−29ююз11910 0.0 104619
12:00−21з12810 0.0 1042286
15:00−16зсз227713 0.0 1038337
18:00−16ссз118665 0.0 103596
21:00−20в119153 0.0 103820
6 марта, сб
сб600:00−22в11950 0.0 103620
03:00−21всв119546 0.0 103520
06:00−23всв119770 0.0 103320
09:00−23св119638 0.0 103327
12:00−14с118322 0.0 1028270
15:00−9сз118039 0.0 1025322
18:00−10зсз118999 0.0 102572
21:00−14юз119496 0.1 102820